Skip Page Navigation
NASA JPL Caltech
NASA Logo - Jet Propulsion Laboratory + View the NASA Portal
+ Center for Near-Earth Object Studies
JPL Home Earth Solar System Stars & Galaxies Technology
JPL Solar System Dynamics
BODIES ORBITS EPHEMERIDES TOOLS PHYSICAL DATA DISCOVERY FAQ SITE MAP
IMPORTANT: The SSD Announcement email list is now available. Major changes are coming in the near future, including possible hostname and/or URL changes. To be notified of such changes, subscribe to this email list.

Please visit this page for more details.


JPL Small-Body Database Browser
Search: [ help ]  
212027 (2005 CV24)
Classification: Main-belt Asteroid          SPK-ID: 2212027
Ephemeris | Orbit Diagram | Orbital Elements | Mission Design | Physical Parameters | Discovery Circumstances ]

[ show orbit diagram ]
Orbital Elements at Epoch 2458600.5 (2019-Apr-27.0) TDB
Reference: JPL 18 (heliocentric ecliptic J2000)
 Element Value Uncertainty (1-sigma)   Units 
e .1031490676200387 3.8741e-08  
a 2.438875962541589 2.1301e-08 au
q 2.1873081809645 9.6285e-08 au
i 7.014915998660882 6.8161e-06 deg
node 232.3976306322169 3.5481e-05 deg
peri 263.161285208746 5.1358e-05 deg
M 263.7770316486109 3.7248e-05 deg
tp 2458972.342688377020
(2020-May-02.84268838)
0.0001459 TDB
period 1391.178947285039
3.81
1.8226e-05
4.99e-08
d
yr
n .2587733236637597 3.3902e-09 deg/d
Q 2.690443744118678 2.3499e-08 au
  Orbit Determination Parameters
   # obs. used (total)      382  
   data-arc span      5495 days (15.04 yr)  
   first obs. used      2003-08-28  
   last obs. used      2018-09-13  
   planetary ephem.      DE431  
   SB-pert. ephem.      SB431-N16  
   condition code      0  
   norm. resid. RMS      .55183  
   source      ORB  
   producer      Otto Matic  
   solution date      2019-Jul-14 04:20:03  

Additional Information
 Earth MOID = 1.21487 au 
 Jupiter MOID = 2.38054 au 
 T_jup = 3.485 
[ show covariance matrix ]

Ephemeris | Orbit Diagram | Orbital Elements | Mission Design | Physical Parameters | Discovery Circumstances ]

Physical Parameter Table
Parameter Symbol Value Units Sigma Reference Notes
absolute magnitude H 16.2   n/a MPO454521  

212027 (2005 CV24)          Discovered 2005-Feb-04 by CSS at Catalina
Reference: 20090409/Numbers.arcLast Updated: 2009-04-10
Ephemeris | Orbit Diagram | Orbital Elements | Mission Design | Physical Parameters | Discovery Circumstances ]
ABOUT SSD CREDITS/AWARDS PRIVACY/COPYRIGHT GLOSSARY LINKS
FirstGov
(server date/time)  
NASA Home Page
Site Manager:   Ryan S. Park
Webmaster  Alan B. Chamberlin